Regional Weather Roundup
Issued by NWS

Home | Current Version | Previous Version | Text Only | Print | Product List | Glossary Off
Versions: 1 2 3 4 5 6 7 8 9 10 11 12 13 14 15 16 17 18 19 20 21 22 23 24 25 26 27 28 29 30 31 32 33 34 35 36 37 38 39 40 41 42 43 44 45 46 47 48 49 50

000
ASUS45 KSLC 300510
RWRUT

UTAH REGIONAL WEATHER ROUNDUP
NATIONAL WEATHER SERVICE SALT LAKE CITY UT
1100 PM MDT SAT AUG 29 2015

UTZ001>011-023>025-300600-

NORTHERN UTAH

CITY           SKY/WX    TMP DP  RH WIND       PRES   REMARKS
BRIGHAM CITY   MOCLDY    86  33  14 S12       29.85F
HILL AFB       MOCLDY    84  43  23 S14       29.92S
LOGAN          CLEAR     74  45  35 SE7       29.86F
OGDEN          MOCLDY    84  41  21 S15       29.88F
PROVO AIRPORT  PTCLDY    79  45  29 SE13      29.96S
SALT LAKE CITY MOCLDY    85  45  24 S16       29.88S
VERNAL         CLEAR     68  40  35 W5        30.07S
WENDOVER       MOCLDY    84  36  17 S13       29.85S
HEBER CITY     MOCLDY    72  37  28 SW7       30.05S
WEST JORDAN    CLEAR     81  45  28 S10       29.94S

$$

UTZ012>022-026-027-300600-

SOUTHERN/CENTRAL UTAH

CITY           SKY/WX    TMP DP  RH WIND       PRES   REMARKS
BLANDING       CLEAR     66  32  28 N7        30.25S
BRYCE CANYON   CLEAR     56  46  69 CALM      30.31S
CEDAR CITY     CLEAR     73  44  35 S9        30.11S
DELTA          PTCLDY    80  40  23 S13       29.98S
HANKSVILLE     CLEAR     79  36  21 SE6       30.03S
MILFORD        CLEAR     76  44  32 S12       30.03S
MOAB/CYNLANDS  CLEAR     69  33  26 CALM      30.02S
PRICE          PTCLDY    70  34  26 NE9       30.13S
ST GEORGE      MOCLDY    88  52  29 CALM      29.91R
KANAB          CLEAR     66  59  77 CALM      30.15S

$$

REGIONAL REPORTS     COLORADO/ARIZONA

CITY           SKY/WX    TMP DP  RH WIND       PRES   REMARKS
CRAIG, CO      MOCLDY    63  42  46 E3        30.18R
GRAND JUNCTION MOCLDY    71  42  35 E9        30.06F
RIFLE          PTCLDY    67  44  43 CALM      30.15R
MONTROSE       PTCLDY    69  41  36 SE12      30.19S
CORTEZ         CLEAR     60  42  51 E6        30.20S
PAGE, AZ       PTCLDY    87  45  23 W6        30.02S
GRAND CANYON   PTCLDY    56  45  66 CALM      30.27F
KINGMAN        PTCLDY    85  51  31 SE10      29.98R
FLAGSTAFF      PTCLDY    58  50  75 CALM      30.32R

$$

REGIONAL REPORTS    NEVADA/IDAHO/WYOMING

CITY           SKY/WX    TMP DP  RH WIND       PRES   REMARKS
LAS VEGAS, NV  CLEAR     95  42  16 S5        29.77S HX  91
ELY            PTCLDY    71  35  26 S10       30.08S
ELKO           MOCLDY    72  37  28 SW9       30.00R
POCATELLO, ID  CLEAR     66  56  70 SE9       29.93F
BURLEY         MOCLDY    68  58  70 W6        29.86R
EVANSTON, WY   MOCLDY    66  37  34 S7        30.16S
ROCK SPRINGS   PTCLDY    71  32  23 S7        30.14F
KEMMERER       MOCLDY    68  32  26 SE6       30.17F

$$


USA.gov is the U.S. government's official web portal to all federal, state and local government web resources and services.